Back to catalog

STARLINK-11105

AliveCommunicationsVLEO
NORAD 59758·PAYLOAD·🇺🇸 United States

Launched May 14, 2024 from Vandenberg Space Force Base

Loading…

Next Passes (next 24 hours)

TLE

FreshSource: CelesTrak SupGP

Epoch: Sep 14, 2026, 20:56 UTC

1 59758C 24091F   26257.87270833 -.00005412  00000+0 -44557-4 0  2579
2 59758  53.1568 353.7259 0001128  76.9800   9.9360 15.69726521    12

Track STARLINK-11105 in real time with AllMySat

Download on the App Store